Regional Weather Roundup
Issued by NWS

Home | Current Version | Previous Version | Graphics & Text | Print | Product List | Glossary On
Versions: 1 2 3 4 5 6 7 8 9 10 11 12 13 14 15 16 17 18 19 20 21 22 23 24 25 26 27 28 29
000
ASUS45 KBOU 300207
RWRCO

WEATHER ROUNDUP FOR COLORADO
NATIONAL WEATHER SERVICE DENVER/BOULDER CO
800 PM MDT SUN MAY 29 2016

NOTE: "FAIR" INDICATES FEW OR NO CLOUDS BELOW 12000 FEET WITH NO
SIGNIFICANT WEATHER AND/OR OBSTRUCTIONS TO VISIBILITY.

COZ001>005-013-030-031-300300-
...NORTHWEST COLORADO...

CITY           SKY/WX    TMP DP  RH WIND       PRES   REMARKS
CRAIG          FAIR      56  40  55 CALM      30.18S
HAYDEN         FAIR      57  37  47 N8        30.19R
MEEKER         MOCLDY    61  37  41 SW7       30.20R
MOUNT WERNER   NOT AVBL
STEAMBOAT SPGS FAIR      56  36  45 W6        30.18S
WALDEN         NOT AVBL
$$

COZ006>008-011-300300-
...WEST CENTRAL VALLEYS...

CITY           SKY/WX    TMP DP  RH WIND       PRES   REMARKS
GRAND JUNCTION FAIR      72  29  20 SE13      30.01F
MONTROSE       FAIR      70  32  24 SE8       30.10F
EAGLE          FAIR      64  34  32 CALM      30.17S
RIFLE          FAIR      63  40  42 S6        30.09F
DELTA          FAIR      74  29  18 NE5       30.06F
NUCLA          FAIR      70  30  23 E7        30.12R
$$

COZ017>023-064>068-300300-
...SOUTHWEST COLORADO...

CITY           SKY/WX    TMP DP  RH WIND       PRES   REMARKS
DURANGO        FAIR      71  20  14 W9        30.10R
CORTEZ         FAIR      72  28  19 S6        30.05S
PAGOSA SPRINGS FAIR      59  31  33 CALM      30.19R
TELLURIDE      FAIR      54  29  38 SW5       30.33R
WOLF CREEK PAS FAIR      41  18  38 SW9       30.49R
$$

COZ009-010-012-014-032>034-037-058>063-300300-
...CENTRAL COLORADO...

CITY           SKY/WX    TMP DP  RH WIND       PRES   REMARKS
ASPEN          FAIR      57  33  40 N3        30.21S
BUENA VISTA    FAIR      58  26  29 SW5       30.24R
COPPER MTN     NOT AVBL
BERTHOUD PASS  FAIR      32  23  69 NW17      30.47S WCI  21
COTTONWOOD PAS FAIR      54  25  32 W5        30.35R
GUNNISON       FAIR      61  28  29 CALM      30.25F
KREMMLING      FAIR      55  34  44 S10       30.22S
LEADVILLE      FAIR      49  25  39 N7        30.33S
MONARCH PASS   FAIR      41  27  56 W22       30.55F
SALIDA         FAIR      63  28  26 W9        30.28R
SUNLIGHT       FAIR      45  32  61 CALM      30.42S
WILKERSON PASS FAIR      43  27  52 N6        30.45R
$$

COZ069>075-300300-
...SAN LUIS VALLEY/SANGRE DE CRISTO MOUNTAINS...

CITY           SKY/WX    TMP DP  RH WIND       PRES   REMARKS
ALAMOSA        FAIR      62  31  31 N8        30.18S
LA VETA PASS   MOCLDY    50  28  43 NE5       30.37R
SAGUACHE       FAIR      54  32  43 NW9       30.24S
$$

COZ035-036-038>040-300300-
...NORTHERN COLORADO FRONT RANGE...

CITY           SKY/WX    TMP DP  RH WIND       PRES   REMARKS
DENVER INTL AP MOCLDY    61  41  47 N8        30.09F
DMNS CITY PARK   N/A     64  42  45 E6G14     30.11R
AURORA         MOCLDY    58  45  60 E6        30.12F
FRONT RANGE AP MOCLDY    59  45  58 NE3       30.12S
ERIE MUNI ARPT FAIR      61  47  60 CALM      30.10R
BOULDER MUN AP FAIR      61  45  55 NE3       30.10R
CENTENNIAL     MOCLDY    62  39  42 NE3       30.13S
BROOMFIELD     MOCLDY    59  48  67 SW7       30.12R
FORT COLLINS   FAIR      39  39 100 CALM      30.12R
LONGMONT       FAIR      64  45  50 CALM      30.12R
$$

COZ041-046-047-076>085-087-088-300300-
...PIKES PEAK/PALMER DIVIDE AND SOUTHERN FOOTHILLS...

CITY           SKY/WX    TMP DP  RH WIND       PRES   REMARKS
COLO. SPRINGS  MOCLDY    62  44  51 N8        30.14R
A. F. ACADEMY  FAIR      59  45  58 N6        30.16R
SCHRIEVER AFB  NOT AVBL
ELLICOTT       FAIR     N/A N/A N/A NE5       30.12R
FALCON         FAIR      58  43  57 W3        30.18R
FORT CARSON    CLEAR     64  45  49 N6        30.11R
LIMON          FAIR      59  52  77 N3        30.08S
MONUMENT HILL  FAIR      55  41  58 N5        30.21R
TRINIDAD       FAIR      65  44  46 SE15G25   30.09R
$$

COZ042>045-048>051-090-091-300300-
...NORTHEAST COLORADO...

CITY           SKY/WX    TMP DP  RH WIND       PRES   REMARKS
GREELEY ARPT   MOCLDY    64  41  42 SW6       30.08S
AKRON          MOCLDY    68  45  43 W14G23    30.03S
BURLINGTON     FAIR      60  51  72 SE28G35   30.05R
WRAY           NOT AVBL
STERLING       FAIR      66  50  55 N14G24    29.98F
HOLYOKE        NOT AVBL
FORT MORGAN    LGT RAIN  61  45  55 NW17G24   30.06S
$$

COZ086-089-092>099-300300-
...SOUTHEAST COLORADO...

CITY           SKY/WX    TMP DP  RH WIND       PRES   REMARKS
PUEBLO         FAIR      70  44  39 NE9       30.04R
LA JUNTA       FAIR      69  47  45 S22       30.03S
LAMAR          FAIR      68  46  45 S15G36    30.02R
SPRINGFIELD      N/A     57  51  80 S15       30.11R
$$




USA.gov is the U.S. government's official web portal to all federal, state and local government web resources and services.